Location: Newark
(22.3060°N, 114.2134°E)
Time: 03:33:29
(UTC+00:00)

Explorer 11/Cluster Stage 4 - Pass Details

Date: 02 August 2021
Orbit: 467 x 1256 km, 28.8° (Epoch: 21 September)

Event Time Altitude Azimuth Distance (km) Brightness Sun altitude
Rises 04:40:34 0° 288° (WNW) 4,195 10.3 84.7°
Reaches altitude 10° 04:43:36 10° 291° (WNW) 3,210 9.9 84.3°
Maximum altitude 04:51:43 67° 13° (NNE) 1,250 8.9 83.0°
Drops below altitude 10° 04:58:47 10° 95° (E) 2,820 9.5 81.7°
Sets 05:01:18 0° 98° (E) 3,661 9.9 81.2°
